Date,TemperatureHighF,TemperatureAvgF,TemperatureLowF,DewpointHighF,DewpointAvgF,DewpointLowF,HumidityHigh,HumidityAvg,HumidityLow,PressureMaxIn,PressureMinIn,WindSpeedMaxMPH,WindSpeedAvgMPH,GustSpeedMaxMPH,PrecipitationSumIn
2014-1-1,50,40,32,22,19,16,59,44,27,29.53,29.53,0,-999,0,0.00
2014-1-2,46,38,30,22,18,13,61,45,27,29.53,29.53,0,-999,0,0.00
2014-1-3,47,38,30,22,19,16,56,45,31,29.53,29.53,0,-999,0,0.00
2014-1-4,54,42,34,22,17,2,59,38,22,29.53,29.53,0,-999,0,0.00
2014-1-5,39,34,28,8,3,-2,40,28,18,29.53,29.53,0,-999,0,0.00
2014-1-6,39,33,26,8,3,1,34,29,21,29.53,29.53,0,-999,0,0.00
2014-1-7,44,34,26,11,7,5,43,32,21,29.53,29.53,0,-999,0,0.00
2014-1-8,45,36,27,17,12,9,49,38,25,29.53,29.53,0,-999,0,0.00
2014-1-9,48,38,29,20,16,14,57,41,27,29.53,29.53,0,-985,0,0.00
2014-1-10,51,42,32,20,16,13,49,35,24,29.53,29.53,0,-999,0,0.00
2014-1-11,51,43,36,24,20,16,49,39,31,29.53,29.53,0,-999,0,0.00
2014-1-12,53,43,37,22,17,6,51,35,22,29.53,29.53,0,-999,0,0.00
2014-1-13,47,40,33,15,11,7,37,30,24,29.53,29.53,0,-999,0,0.00
2014-1-14,50,42,36,17,15,13,44,34,22,29.53,29.53,0,-999,0,0.00
2014-1-15,50,42,33,18,16,12,49,35,27,29.53,29.53,0,-999,0,0.00
2014-1-16,50,42,35,16,14,11,44,32,24,29.53,29.53,0,-999,0,0.00
2014-1-17,48,40,33,17,14,11,47,35,25,29.53,29.53,0,-999,0,0.00
2014-1-18,50,40,32,18,15,13,47,36,24,29.53,29.53,0,-999,0,0.00
2014-1-19,50,40,32,18,15,13,48,36,25,29.53,29.53,0,-999,0,0.00
2014-1-20,52,43,34,18,15,11,46,33,21,29.53,29.53,0,-999,0,0.00
2014-1-21,50,41,34,16,14,12,43,33,24,29.53,29.53,0,-999,0,0.00
2014-1-22,48,40,33,20,14,10,50,34,25,29.53,29.53,0,-971,0,0.00
2014-1-23,40,33,26,19,15,10,54,47,29,29.53,29.53,0,-999,0,0.00
2014-1-24,42,32,22,18,14,9,58,48,35,29.53,29.53,0,-999,0,0.00
2014-1-25,48,38,30,17,14,8,52,38,24,29.53,29.53,0,-999,0,0.00
2014-1-26,51,43,33,17,10,6,35,27,17,29.53,29.53,0,-999,0,0.00
2014-1-27,50,43,38,22,18,14,47,36,27,29.53,29.53,0,-999,0,0.00
2014-1-28,45,37,33,17,13,6,48,38,25,29.53,29.53,0,-999,0,0.00
2014-1-29,49,42,34,11,8,6,33,25,18,29.53,29.53,0,-789,0,0.00
2014-1-30,63,50,36,30,21,9,44,33,27,29.53,29.53,0,-999,0,0.00
2014-1-31,60,52,46,30,27,22,46,37,30,29.53,29.53,0,-999,0,0.00
2014-2-1,53,47,43,27,22,16,49,37,24,29.53,29.53,0,-999,0,0.00
2014-2-2,45,41,35,20,17,15,48,38,30,29.53,29.53,0,-999,0,0.00
2014-2-3,50,43,38,38,25,18,94,50,29,29.53,29.53,0,-999,0,0.03
2014-2-4,43,39,35,40,33,26,95,81,58,29.53,29.53,0,-999,0,0.11
2014-2-5,40,35,31,29,26,20,74,68,56,29.53,29.53,0,-999,0,0.03
2014-2-6,39,34,29,30,24,18,74,67,61,29.53,29.53,0,-999,0,0.04
2014-2-7,47,40,33,33,27,23,72,61,45,29.53,29.53,0,-999,0,0.00
2014-2-8,51,42,32,31,28,24,72,59,43,29.53,29.53,0,-852,0,0.01
2014-2-9,57,47,36,35,31,26,68,55,43,29.53,29.53,0,-999,0,0.00
2014-2-10,59,50,40,33,30,24,66,48,27,29.53,29.53,0,-999,0,0.00
2014-2-11,51,46,40,32,27,16,61,48,31,29.53,29.53,0,-999,0,0.00
2014-2-12,54,45,37,22,19,16,51,36,26,29.53,29.53,0,-999,0,0.00
2014-2-13,60,50,41,27,23,19,49,35,26,29.53,29.53,0,-999,0,0.00
2014-2-14,66,55,45,30,26,21,45,34,24,29.53,29.53,0,-999,0,0.00
2014-2-15,66,53,43,30,26,20,54,37,20,29.53,29.53,0,-999,0,0.00
2014-2-16,66,56,44,24,20,16,38,26,16,29.53,29.53,0,-999,0,0.00
2014-2-17,59,51,41,24,16,4,42,26,11,29.53,29.53,0,-999,0,0.00
2014-2-18,62,52,42,24,19,15,40,28,19,29.53,29.53,0,-999,0,0.00
2014-2-19,65,55,46,22,19,15,38,25,17,29.53,29.53,0,-999,0,0.00
2014-2-20,50,44,39,21,6,-4,33,21,13,29.53,29.53,0,-999,0,0.00
2014-2-21,52,43,32,16,7,0,30,23,16,29.53,29.53,0,-999,0,0.00
2014-2-22,59,47,35,19,15,12,41,28,19,29.53,29.53,0,-999,0,0.00
2014-2-23,59,49,38,21,18,16,43,30,20,29.53,29.53,0,-917,0,0.00
2014-2-24,60,50,38,20,18,15,43,29,20,29.53,29.53,0,-999,0,0.00
2014-2-25,63,53,43,25,20,16,36,28,21,29.53,29.53,0,-999,0,0.00
2014-2-26,57,49,40,25,22,20,50,35,23,29.53,29.53,0,-999,0,0.00
2014-2-27,64,54,44,35,26,18,53,35,21,29.53,29.53,0,-999,0,0.00
2014-2-28,62,52,42,34,26,22,53,37,24,29.53,29.53,0,-999,0,0.00
2014-3-1,61,51,45,47,34,23,75,52,33,29.53,29.53,0,-999,0,0.09
2014-3-2,58,50,44,40,34,26,78,58,33,29.53,29.53,0,-999,0,0.05
2014-3-3,57,48,39,34,30,26,68,50,32,29.53,29.53,0,-999,0,0.00
2014-3-4,59,49,38,45,31,26,81,53,30,29.53,29.53,0,-999,0,0.04
2014-3-5,58,50,43,41,31,20,74,50,24,29.53,29.53,0,-999,0,0.00
2014-3-6,61,51,39,30,25,22,58,39,22,29.53,29.53,0,-999,0,0.00
2014-3-7,64,53,44,40,27,20,47,36,27,29.53,29.53,0,-999,0,0.00
2014-3-8,57,49,43,32,27,22,62,43,27,29.53,29.53,0,-999,0,0.00
2014-3-9,55,46,36,28,22,11,61,40,20,29.53,29.53,0,-999,0,0.39
2014-3-10,61,50,38,20,17,12,42,28,17,29.53,29.53,0,-999,0,0.00
2014-3-11,59,51,42,23,16,8,43,25,16,29.53,29.53,0,-999,0,0.00
2014-3-12,52,44,36,18,16,14,44,32,24,29.53,29.53,0,-999,0,0.00
2014-3-13,59,49,37,36,22,16,54,35,23,29.53,29.53,0,-999,0,0.00
2014-3-14,59,51,44,48,38,33,95,61,39,29.53,29.53,0,-999,0,0.35
2014-3-15,59,49,43,57,40,-44,100,75,9,29.53,29.53,0,-999,0,0.01
2014-3-16,55,47,38,23,18,14,46,32,22,29.53,29.53,0,-985,0,0.00
2014-3-17,68,53,40,23,18,15,48,27,13,29.53,29.53,0,-999,0,0.00
2014-3-18,55,50,43,19,10,4,27,21,14,29.53,29.53,0,-999,0,0.00
2014-3-19,54,46,37,18,13,6,41,27,16,29.53,29.53,0,-924,0,0.00
2014-3-20,63,50,36,21,13,8,38,24,13,29.53,29.53,0,-999,0,0.00
2014-3-21,66,57,45,22,16,10,30,20,12,29.53,29.53,0,-999,0,0.00
2014-3-22,66,56,45,24,21,18,39,26,18,29.53,29.53,0,-999,0,0.00
2014-3-23,61,53,43,28,24,21,46,34,25,29.53,29.53,0,-999,0,0.00
2014-3-24,66,54,42,27,17,6,50,26,11,29.53,29.53,0,-999,0,0.00
2014-3-25,66,55,43,36,21,12,44,28,17,29.53,29.53,0,-999,0,0.00
2014-3-26,67,58,48,42,32,19,65,41,18,29.53,29.53,0,-999,0,0.00
2014-3-27,64,56,47,32,27,21,54,35,21,29.53,29.53,0,-967,0,0.00
2014-3-28,64,56,47,26,22,16,43,27,18,29.53,29.53,0,-999,0,0.00
2014-3-29,67,56,44,24,19,14,36,25,17,29.53,29.53,0,-999,0,0.00
2014-3-30,72,60,48,28,21,13,40,23,13,29.53,29.53,0,-999,0,0.00
2014-3-31,65,56,47,22,17,10,30,22,13,29.53,29.53,0,-999,0,0.00
2014-4-1,72,59,44,18,16,12,33,19,11,29.53,29.53,0,-999,0,0.00
2014-4-2,71,58,45,18,12,3,23,16,10,29.53,29.53,0,-999,0,0.00
2014-4-3,60,51,43,23,18,13,40,27,17,29.53,29.53,0,-971,0,0.00
2014-4-4,63,51,38,25,20,14,53,31,15,29.53,29.53,0,-999,0,0.00
2014-4-5,67,56,48,32,24,17,47,29,16,29.53,29.53,0,-999,0,0.00
2014-4-6,66,54,42,32,25,12,59,36,16,29.53,29.53,0,-999,0,0.00
2014-4-7,68,55,44,32,24,16,59,33,15,29.53,29.53,0,-999,0,0.00
2014-4-8,72,58,45,27,22,18,40,26,14,29.53,29.53,0,-999,0,0.00
2014-4-9,78,64,48,24,20,14,33,19,11,29.53,29.53,0,-408,0,0.00
2014-4-10,80,66,51,21,16,11,27,15,9,29.53,29.53,0,-999,0,3.18
2014-4-11,79,65,52,23,17,12,27,16,9,29.53,29.53,0,-970,0,3.18
2014-4-12,76,65,55,31,23,15,28,21,13,29.53,29.53,0,-999,0,0.00
2014-4-13,78,63,53,38,24,16,45,24,14,29.53,29.53,0,-999,0,0.00
2014-4-14,62,54,46,34,22,16,47,30,21,29.53,29.53,0,-999,0,0.00
2014-4-15,69,55,40,21,18,12,44,25,13,29.53,29.53,0,-999,0,0.00
2014-4-16,76,61,46,27,18,12,30,19,11,29.53,29.53,0,-999,0,0.00
2014-4-17,73,62,50,32,28,24,45,28,19,29.53,29.53,0,-999,0,0.00
2014-4-18,79,65,51,46,30,25,51,28,15,29.53,29.53,0,-999,0,0.00
2014-4-19,66,61,56,50,45,40,74,56,45,29.53,29.53,0,-999,0,0.03
2014-4-20,78,64,52,49,41,27,79,49,21,29.53,29.53,0,-999,0,0.01
2014-4-21,82,68,55,42,37,29,55,34,16,29.53,29.53,0,-999,0,0.00
2014-4-22,83,72,62,44,37,31,49,30,17,29.53,29.53,0,-999,0,0.00
2014-4-23,80,68,58,36,28,16,42,23,13,29.53,29.53,24,-664,24,0.00
2014-4-24,75,62,50,23,18,14,26,19,12,29.53,29.53,9,0,9,0.00
2014-4-25,79,65,48,24,19,14,31,18,11,29.53,29.53,10,0,10,0.00
2014-4-26,75,63,49,36,23,14,49,23,14,29.53,29.53,26,1,30,0.00
2014-4-27,66,55,46,31,25,17,51,32,17,29.53,29.53,28,2,28,0.00
2014-4-28,69,56,46,33,21,5,47,27,12,29.53,29.53,19,2,19,0.00
2014-4-29,68,55,42,17,13,7,29,19,11,29.53,29.53,10,0,10,0.00
2014-4-30,71,57,45,26,21,15,41,26,15,29.53,29.53,22,2,22,0.00
2014-5-1,71,58,46,30,22,17,33,26,17,29.53,29.53,18,2,18,0.00
2014-5-2,75,61,46,30,26,21,47,28,15,29.53,29.53,11,0,11,0.00
2014-5-3,83,67,51,28,23,19,33,20,12,29.53,29.53,9,0,9,0.00
2014-5-4,87,72,55,27,22,17,32,16,9,29.53,29.53,18,1,18,0.00
2014-5-5,86,72,57,27,22,15,28,16,10,29.53,29.53,16,0,16,0.00
2014-5-6,82,70,57,27,20,11,28,16,8,29.53,29.53,14,0,14,0.00
2014-5-7,77,67,58,27,18,10,22,15,10,29.53,29.53,24,1,24,0.00
2014-5-8,69,58,49,59,32,18,93,41,20,29.53,29.53,111,-3,138,0.09
2014-5-9,77,62,45,35,30,25,61,33,15,29.53,29.53,19,0,19,0.00
2014-5-10,80,68,53,33,28,24,40,24,15,29.53,29.53,14,0,14,0.00
2014-5-11,83,70,59,32,27,19,35,21,11,29.53,29.53,27,1,27,0.00
2014-5-12,72,60,49,41,31,23,68,36,21,29.53,29.53,111,-54,137,0.04
2014-5-13,64,52,42,37,28,24,64,43,25,29.53,29.53,22,3,22,0.00
2014-5-14,70,56,43,30,25,17,55,33,15,29.53,29.53,9,0,9,0.00
2014-5-15,78,62,46,28,22,16,43,23,13,29.53,29.53,13,0,13,0.00
2014-5-16,88,70,53,33,26,20,36,21,12,29.53,29.53,15,0,15,0.00
2014-5-17,88,74,62,38,32,26,38,23,13,29.53,29.53,9,1,14,0.00
2014-5-18,89,75,60,36,23,13,38,16,8,29.53,29.53,15,0,15,0.00
2014-5-19,89,74,58,32,19,12,33,14,6,29.53,29.53,19,1,19,0.00
2014-5-20,88,74,60,27,18,12,27,13,7,29.53,29.53,11,0,11,0.00
2014-5-21,86,74,62,32,24,18,27,16,10,29.53,29.53,8,1,14,0.00
2014-5-22,85,74,62,48,36,21,45,27,15,29.53,29.53,111,-75,137,0.00
2014-5-23,77,67,59,62,50,42,76,55,30,29.53,29.53,111,-214,137,0.15
2014-5-24,72,63,57,55,47,42,78,57,38,29.53,29.53,111,-45,137,0.08
2014-5-25,76,60,51,57,45,36,87,61,24,29.53,29.53,111,-332,137,0.46
2014-5-26,76,62,50,51,46,39,87,59,31,29.53,29.53,111,-342,137,0.01
2014-5-27,86,71,55,47,43,33,71,41,17,29.53,29.53,15,1,15,0.00
2014-5-28,92,78,64,49,43,30,56,31,12,29.53,29.53,28,1,28,0.00
2014-5-29,90,78,68,50,46,42,51,33,21,29.53,29.53,22,0,22,0.00
2014-5-30,89,78,68,52,46,39,53,34,20,29.53,29.53,8,0,8,0.00
2014-5-31,92,80,65,47,42,36,49,28,16,29.53,29.53,9,0,9,0.00
2014-6-1,94,81,67,44,33,24,42,19,10,29.53,29.53,16,0,17,0.00
2014-6-2,93,80,63,38,30,23,31,17,9,29.53,29.53,12,0,12,0.00
2014-6-3,96,82,67,45,36,30,38,21,11,29.53,29.53,9,0,9,0.00
2014-6-4,96,83,67,41,30,18,38,16,9,29.53,29.53,11,0,11,0.00
2014-6-5,95,81,64,47,29,17,27,16,7,29.53,29.53,19,1,19,0.00
2014-6-6,95,83,71,56,39,22,52,24,9,29.53,29.53,19,1,19,0.00
2014-6-7,91,78,68,57,49,26,63,38,17,29.53,29.53,28,3,28,0.00
2014-6-8,90,78,66,51,41,25,52,30,13,29.53,29.53,16,2,18,0.00
2014-6-9,88,76,63,41,28,14,43,18,9,29.53,29.53,10,1,10,0.00
2014-6-10,90,76,61,38,30,21,41,21,10,29.53,29.53,12,0,12,0.00
2014-6-11,91,79,68,43,36,26,35,21,16,29.53,29.53,36,1,36,0.00
2014-6-12,91,79,66,51,35,27,44,22,11,29.53,29.53,24,1,24,0.00
2014-6-13,88,76,67,74,52,43,88,46,22,29.53,29.53,82,-314,137,0.15
2014-6-14,92,78,63,51,39,18,58,30,10,29.53,29.53,0,-999,0,0.00
2014-6-15,89,76,60,32,25,16,29,16,9,29.53,29.53,0,-999,0,0.00
2014-6-16,93,80,65,38,28,16,24,15,10,29.53,29.53,0,-999,0,0.00
2014-6-17,91,78,67,67,39,32,62,25,16,29.53,29.53,0,-999,0,0.07
2014-6-18,88,76,64,56,42,37,48,30,18,29.53,29.53,0,-999,0,0.00
2014-6-19,90,79,63,40,34,27,38,21,11,29.53,29.53,0,-999,0,0.00
2014-6-20,93,80,65,49,39,25,35,24,14,29.53,29.53,0,-999,0,0.00
2014-6-21,95,82,69,52,45,36,52,30,14,29.53,29.53,0,-999,0,0.00
2014-6-22,95,82,67,50,38,23,51,24,11,29.53,29.53,0,-999,0,0.00
2014-6-23,94,82,70,47,38,27,42,23,11,29.53,29.53,0,-999,0,0.00
2014-6-24,94,82,70,49,40,28,45,25,11,29.53,29.53,0,-999,0,0.00
2014-6-25,94,82,70,55,41,31,57,26,11,29.53,29.53,0,-999,0,0.00
2014-6-26,96,82,67,49,35,25,39,20,11,29.53,29.53,0,-999,0,0.00
2014-6-27,96,85,75,42,37,27,27,18,14,29.53,29.53,0,-999,0,0.00
2014-6-28,95,82,69,41,37,33,29,20,13,29.53,29.53,0,-999,0,0.00
2014-6-29,97,83,68,46,39,33,32,22,14,29.53,29.53,0,-999,0,0.00
2014-6-30,100,86,72,46,41,34,32,21,13,29.53,29.53,0,-999,0,0.00
2014-7-1,94,83,75,56,48,37,45,30,20,29.53,29.53,0,-999,0,0.00
2014-7-2,91,80,71,57,50,45,54,36,24,29.53,29.53,0,-999,0,0.00
2014-7-3,91,78,64,69,56,45,96,53,21,29.53,29.53,0,-999,0,0.62
2014-7-4,88,76,64,78,53,-32,100,53,4,29.53,29.53,0,-999,0,0.02
2014-7-5,92,78,66,79,58,-31,100,61,1,29.53,29.53,0,-999,0,0.90
2014-7-6,94,79,68,62,58,49,77,52,25,29.53,29.53,0,-999,0,0.01
2014-7-7,93,81,68,60,54,44,71,44,24,29.53,29.53,0,-999,0,0.00
2014-7-8,93,82,71,56,52,48,58,38,23,29.53,29.53,0,-999,0,0.00
2014-7-9,92,79,69,70,55,46,80,46,24,29.53,29.53,0,-999,0,0.29
2014-7-10,91,78,67,60,56,51,73,50,27,29.53,29.53,0,0,0,0.00
2014-7-11,94,80,70,66,56,50,66,47,25,29.53,29.53,0,0,0,0.06
2014-7-12,93,80,68,63,57,48,75,48,27,29.53,29.53,0,0,0,0.00
2014-7-13,90,79,72,60,56,52,55,45,32,29.53,29.53,0,0,0,0.00
2014-7-14,93,79,68,69,57,51,95,50,27,29.53,29.53,0,0,0,0.43
2014-7-15,82,73,65,77,62,53,100,71,38,29.53,29.53,0,0,0,0.29
2014-7-16,88,74,66,72,60,54,99,65,37,29.53,29.53,0,0,0,0.69
2014-7-17,88,75,65,80,55,-32,100,58,1,29.53,29.53,0,0,0,0.00
2014-7-18,91,79,68,62,56,45,76,49,22,29.53,29.53,0,0,0,0.00
2014-7-19,93,81,71,61,56,47,66,44,26,29.53,29.53,0,0,0,0.00
2014-7-20,95,82,70,58,54,48,62,40,22,29.53,29.53,0,0,0,0.00
2014-7-21,94,83,73,59,52,47,58,36,21,29.53,29.53,0,0,0,0.00
2014-7-22,98,84,73,75,55,47,98,42,20,29.53,29.53,0,0,0,0.18
2014-7-23,91,79,69,71,60,48,91,54,33,29.53,29.53,0,0,0,0.00
2014-7-24,92,81,70,57,51,43,64,38,20,29.53,29.53,0,0,0,0.00
2014-7-25,96,83,72,53,47,42,38,29,19,29.53,29.53,0,0,0,0.00
2014-7-26,99,85,73,55,49,43,47,31,19,29.53,29.53,0,0,0,0.00
2014-7-27,96,80,72,79,58,49,97,51,27,29.53,29.53,0,0,0,0.60
2014-7-28,88,78,69,65,58,53,71,53,32,29.53,29.53,0,0,0,0.03
2014-7-29,89,74,68,77,66,58,100,78,36,29.53,29.53,0,0,0,1.16
2014-7-30,88,75,64,78,61,-28,100,67,5,29.53,29.53,0,0,0,0.06
2014-7-31,85,73,65,67,60,56,85,64,43,29.53,29.53,0,0,0,0.12
2014-8-1,86,74,64,69,58,54,98,62,36,29.53,29.53,0,0,0,1.24
2014-8-2,78,70,62,78,57,-35,100,69,1,29.53,29.53,0,0,0,0.36
2014-8-3,83,73,64,67,57,52,82,60,39,29.53,29.53,0,0,0,0.09
2014-8-4,86,75,68,64,61,55,83,63,38,29.53,29.53,0,0,0,0.09
2014-8-5,87,75,64,62,58,53,84,59,33,29.53,29.53,0,0,0,0.00
2014-8-6,91,78,66,60,54,44,75,47,20,29.53,29.53,0,0,0,0.00
2014-8-7,79,72,66,60,55,49,76,56,37,29.53,29.53,0,0,0,0.00
2014-8-8,86,73,60,58,55,51,82,57,33,29.53,29.53,0,0,0,0.00
2014-8-9,90,76,65,57,52,41,68,46,21,29.53,29.53,0,0,0,0.00
2014-8-10,88,76,64,56,52,48,65,45,28,29.53,29.53,0,0,0,0.00
2014-8-11,90,77,68,56,52,48,63,44,27,29.53,29.53,0,0,0,0.00
2014-8-12,91,79,69,58,55,50,65,46,26,29.53,29.53,0,0,0,0.00
2014-8-13,84,77,71,62,59,55,69,54,41,29.53,29.53,0,0,0,0.02
2014-8-14,87,76,67,66,60,56,82,60,38,29.53,29.53,0,0,0,0.03
2014-8-15,89,77,67,68,58,52,81,55,30,29.53,29.53,0,0,0,0.24
2014-8-16,90,77,64,64,56,46,84,53,24,29.53,29.53,0,0,0,0.01
2014-8-17,94,79,68,57,53,48,64,43,23,29.53,29.53,0,0,0,0.00
2014-8-18,93,79,66,55,52,47,63,42,22,29.53,29.53,0,0,0,0.00
2014-8-19,92,79,69,56,51,44,57,40,21,29.53,29.53,0,0,0,0.00
2014-8-20,90,78,70,57,52,46,62,43,23,29.53,29.53,0,0,0,0.00
2014-8-21,90,77,65,51,46,32,57,35,17,29.53,29.53,0,0,0,0.00
2014-8-22,76,71,63,64,57,48,85,63,39,29.53,29.53,0,0,0,0.27
2014-8-23,84,70,59,60,55,48,87,61,33,29.53,29.53,0,0,0,0.02
2014-8-24,87,75,63,56,50,42,72,46,22,29.53,29.53,0,0,0,0.00
2014-8-25,90,77,65,54,50,46,59,41,25,29.53,29.53,0,0,0,0.00
2014-8-26,84,75,68,63,56,51,72,52,35,29.53,29.53,0,0,0,0.01
2014-8-27,82,73,64,64,57,50,85,60,35,29.53,29.53,0,0,0,0.07
2014-8-28,84,72,61,54,47,41,65,43,24,29.53,29.53,0,0,0,0.00
2014-8-29,85,74,62,49,46,42,61,40,23,29.53,29.53,0,0,0,0.00
2014-8-30,88,75,63,49,46,42,55,37,21,29.53,29.53,0,0,0,0.00
2014-8-31,91,79,67,46,43,38,45,29,18,29.53,29.53,0,0,0,0.00
2014-9-1,90,78,67,50,43,38,42,30,19,29.53,29.53,0,0,0,0.00
2014-9-2,90,78,64,47,42,36,52,30,16,29.53,29.53,0,0,0,0.00
2014-9-3,90,78,66,48,42,34,46,29,15,29.53,29.53,0,0,0,0.00
2014-9-4,90,78,68,55,48,36,59,37,18,29.53,29.53,0,0,0,0.00
2014-9-5,88,75,67,59,55,50,66,51,31,29.53,29.53,0,0,0,0.00
2014-9-6,80,71,66,56,54,52,69,55,39,29.53,29.53,0,0,0,0.00
2014-9-7,82,72,62,58,52,48,73,53,33,29.53,29.53,0,0,0,0.00
2014-9-8,84,74,65,65,58,52,75,58,36,29.53,29.53,0,0,0,0.03
2014-9-9,86,77,70,63,56,46,76,51,25,29.53,29.53,0,0,0,0.00
2014-9-10,84,75,69,55,48,39,59,39,24,29.53,29.53,0,0,0,0.00
2014-9-11,83,73,63,54,46,39,58,40,24,29.53,29.53,0,0,0,0.00
2014-9-12,72,67,58,56,51,43,67,57,45,29.53,29.53,0,0,0,0.00
2014-9-13,75,64,55,57,47,40,65,54,41,29.53,29.53,0,0,0,0.00
2014-9-14,80,70,61,56,53,51,72,56,38,29.53,29.53,0,0,0,0.00
2014-9-15,84,72,63,65,56,48,73,60,29,29.53,29.53,0,0,0,0.25
2014-9-16,78,70,66,62,59,56,79,67,54,29.53,29.53,0,0,0,0.01
2014-9-17,72,67,64,64,60,55,91,78,67,29.53,29.53,0,0,0,0.20
2014-9-18,78,68,59,60,56,51,84,66,41,29.53,29.53,0,0,0,0.00
2014-9-19,81,72,65,60,59,56,80,64,44,29.53,29.53,0,0,0,0.00
2014-9-20,84,73,64,60,56,44,80,58,26,29.53,29.53,0,0,0,0.00
2014-9-21,80,73,67,59,57,53,71,57,39,29.53,29.53,0,0,0,0.00
2014-9-22,82,72,67,64,59,55,80,62,43,29.53,29.53,0,0,0,0.01
2014-9-23,76,70,62,63,58,48,84,67,39,29.53,29.53,0,0,0,0.00
2014-9-24,82,71,62,59,54,43,82,57,27,29.53,29.53,0,0,0,0.00
2014-9-25,81,71,64,66,54,49,80,58,35,29.53,29.53,0,0,0,0.25
2014-9-26,75,67,60,59,56,53,83,67,48,29.53,29.53,0,0,0,0.00
2014-9-27,75,68,61,55,51,44,72,56,35,29.53,29.53,0,0,0,0.00
2014-9-28,77,69,63,55,51,48,67,54,37,29.53,29.53,0,0,0,0.00
2014-9-29,76,68,61,57,48,33,77,51,27,29.53,29.53,0,0,0,0.00
2014-9-30,69,61,52,40,37,33,63,42,27,29.53,29.53,0,0,0,0.00
2014-10-1,71,62,51,40,36,32,64,41,24,29.53,29.53,0,0,0,0.00
2014-10-2,66,60,54,40,28,15,48,30,16,29.53,29.53,0,0,0,0.00
2014-10-3,68,59,48,34,28,22,45,31,21,29.53,29.53,0,0,0,0.00
2014-10-4,71,61,51,33,30,26,48,32,19,29.53,29.53,0,0,0,0.00
2014-10-5,72,64,54,34,31,26,41,30,19,29.53,29.53,0,0,0,0.00
2014-10-6,74,64,52,37,31,23,54,31,17,29.53,29.53,0,0,0,0.00
2014-10-7,75,64,54,40,32,27,47,31,20,29.53,29.53,0,0,0,0.00
2014-10-8,71,64,58,56,41,28,76,43,26,29.53,29.53,0,0,0,0.07
2014-10-9,69,62,56,59,55,51,89,77,58,29.53,29.53,0,0,0,0.20
2014-10-10,66,60,57,54,50,47,81,70,54,29.53,29.53,0,0,0,0.07
2014-10-11,67,60,55,52,50,47,80,69,51,29.53,29.53,0,0,0,0.00
2014-10-12,70,60,52,49,37,19,75,46,17,29.53,29.53,0,0,0,0.00
2014-10-13,61,54,46,33,29,20,58,38,24,29.53,29.53,0,0,0,0.00
2014-10-14,62,53,44,34,29,25,58,41,24,29.53,29.53,0,0,0,0.00
2014-10-15,68,56,44,39,34,30,60,45,27,29.53,29.53,0,0,0,0.00
2014-10-16,70,59,49,42,38,35,63,46,28,29.53,29.53,0,0,0,0.00
2014-10-17,70,62,53,44,38,32,56,42,27,29.53,29.53,0,0,146,0.00
2014-10-18,70,64,58,47,42,38,63,46,36,29.53,29.53,0,0,0,0.00
2014-10-19,67,60,53,48,46,44,74,62,50,29.53,29.53,0,0,0,0.00
2014-10-20,69,57,50,59,48,42,100,75,42,29.53,29.53,0,0,0,0.39
2014-10-21,66,59,53,66,51,-38,100,78,15,29.53,29.53,0,0,0,0.01
2014-10-22,68,60,53,52,48,42,83,66,39,29.53,29.53,0,0,0,0.00
2014-10-23,68,59,51,48,44,38,77,60,35,29.53,29.53,0,0,0,0.00
2014-10-24,69,58,49,44,40,35,69,52,29,29.53,29.53,0,0,0,0.00
2014-10-25,69,59,49,43,39,33,68,50,28,29.53,29.53,0,0,0,0.00
2014-10-26,73,62,52,51,44,40,67,52,38,29.53,29.53,0,0,0,0.00
2014-10-27,69,63,56,47,40,32,62,45,26,29.53,29.53,0,0,0,0.00
2014-10-28,63,56,50,39,34,28,55,44,27,29.53,29.53,0,0,0,0.00
2014-10-29,64,54,45,35,28,21,58,39,22,29.53,29.53,0,0,0,0.00
2014-10-30,64,55,44,30,24,18,42,30,20,29.53,29.53,0,0,0,0.00
2014-10-31,66,59,50,52,32,24,78,37,28,29.53,29.53,0,0,0,0.03
2014-11-1,66,59,51,51,44,42,77,58,43,29.53,29.53,0,0,0,0.00
2014-11-2,62,56,52,52,47,41,90,71,50,29.53,29.53,0,0,0,0.25
2014-11-3,55,50,45,48,35,27,87,59,35,29.53,29.53,0,0,0,0.00
2014-11-4,54,48,42,34,31,28,71,53,38,29.53,29.53,0,0,0,0.00
2014-11-5,56,48,38,32,27,17,69,47,27,29.53,29.53,0,0,0,0.00
2014-11-6,57,48,40,32,26,22,55,43,26,29.53,29.53,0,0,0,0.00
2014-11-7,59,49,39,32,28,23,65,44,26,29.53,29.53,0,0,0,0.00
2014-11-8,60,52,45,35,31,26,57,44,33,29.53,29.53,0,0,0,0.00
2014-11-9,59,50,42,36,34,31,69,54,36,29.53,29.53,0,0,0,0.00
2014-11-10,65,55,43,35,30,24,67,42,24,29.53,29.53,0,0,0,0.00
2014-11-11,63,54,45,36,28,23,51,38,23,29.53,29.53,0,0,0,0.00
2014-11-12,51,43,34,26,19,13,44,38,33,29.53,29.53,0,0,0,0.00
2014-11-13,44,37,30,26,18,11,57,46,41,29.53,29.53,0,0,0,0.00
2014-11-14,65,46,37,49,29,24,62,52,43,29.53,29.53,0,0,0,0.74
2014-11-15,59,52,44,36,29,20,68,43,22,29.53,29.53,0,0,0,0.00
2014-11-16,54,44,35,40,23,14,72,45,29,29.53,29.53,0,0,0,0.02
2014-11-17,42,36,30,15,10,8,46,35,24,29.53,29.53,0,0,0,0.00
2014-11-18,44,37,28,18,14,11,52,39,26,29.53,29.53,0,0,0,0.00
2014-11-19,49,39,31,17,14,9,51,37,21,29.53,29.53,0,0,0,0.00
2014-11-20,50,41,32,16,14,8,49,34,19,29.53,29.53,0,0,0,0.00
2014-11-21,52,42,34,23,18,13,49,38,27,29.53,29.53,0,0,0,0.00
2014-11-22,52,43,34,23,20,16,55,41,28,29.53,29.53,0,0,0,0.00
2014-11-23,50,45,38,28,17,9,51,33,21,29.53,29.53,0,0,0,0.00
2014-11-24,47,39,32,20,12,8,47,34,22,29.53,29.53,0,0,0,0.00
2014-11-25,44,37,28,17,11,6,53,36,22,29.53,29.53,0,0,0,0.00
2014-11-26,54,44,35,25,18,9,48,34,27,29.53,29.53,0,0,0,0.00
2014-11-27,52,44,37,26,24,21,54,45,31,29.53,29.53,0,0,0,0.00
2014-11-28,55,45,36,24,22,20,54,42,27,29.53,29.53,0,0,0,0.00
2014-11-29,56,47,37,22,19,16,51,35,21,29.53,29.53,0,0,0,0.00
2014-11-30,57,47,39,22,19,15,42,32,24,29.53,29.53,0,0,0,0.00
2014-12-1,53,44,36,22,19,17,49,37,27,29.53,29.53,0,0,0,0.00
2014-12-2,52,45,37,24,21,18,47,39,28,29.53,29.53,0,0,0,0.00
2014-12-3,59,50,41,50,32,22,83,52,33,29.53,29.53,0,0,0,0.04
2014-12-4,52,49,45,49,45,40,91,84,76,29.53,29.53,0,0,0,0.59
2014-12-5,57,49,45,44,41,38,86,76,58,29.53,29.53,0,0,0,0.00
2014-12-6,57,51,43,47,40,35,85,67,52,29.53,29.53,0,0,0,0.05
2014-12-7,55,49,44,47,41,36,88,75,51,29.53,29.53,0,0,0,0.13
2014-12-8,53,46,40,39,36,32,76,68,49,29.53,29.53,0,0,0,0.00
2014-12-9,55,46,39,37,34,31,74,65,47,29.53,29.53,0,0,0,0.01
2014-12-10,52,45,38,35,31,27,72,59,39,29.53,29.53,0,0,0,0.00
2014-12-11,54,46,38,36,32,27,68,60,43,29.53,29.53,0,0,0,0.00
2014-12-12,56,46,38,38,34,30,74,64,49,29.53,29.53,0,0,0,0.00
2014-12-13,58,48,40,44,36,33,94,65,43,29.53,29.53,0,0,0,0.33
2014-12-14,47,41,36,46,36,27,100,83,57,29.53,29.53,0,0,0,0.32
2014-12-15,44,38,33,28,26,24,73,62,45,29.53,29.53,0,0,0,0.00
2014-12-16,47,41,36,32,29,26,72,62,48,29.53,29.53,0,0,0,0.00
2014-12-17,48,42,38,40,35,28,87,77,66,29.53,29.53,0,0,0,0.15
2014-12-18,47,40,33,34,31,26,81,71,55,29.53,29.53,0,0,0,0.01
2014-12-19,44,39,33,30,27,25,76,64,49,29.53,29.53,0,0,0,0.01
2014-12-20,43,38,31,30,27,23,74,66,53,29.53,29.53,0,0,0,0.00
2014-12-21,49,41,34,32,30,26,73,64,50,29.53,29.53,0,0,0,0.00
2014-12-22,56,44,37,47,36,29,96,75,38,29.53,29.53,0,0,0,0.08
2014-12-23,43,39,34,34,22,13,77,52,33,29.53,29.53,0,0,0,0.00
2014-12-24,40,34,28,19,15,11,62,46,33,29.53,29.53,0,0,0,0.00
2014-12-25,48,41,34,32,18,11,72,41,27,29.53,29.53,0,0,0,0.00
2014-12-26,40,36,30,32,23,14,81,60,36,29.53,29.53,0,0,0,0.03
2014-12-27,38,31,25,18,14,10,64,50,35,29.53,29.53,0,0,0,0.00
2014-12-28,37,31,24,16,13,10,59,48,35,29.53,29.53,0,0,0,0.00
2014-12-29,41,33,24,19,15,9,64,49,32,29.53,29.53,0,0,0,0.00
2014-12-30,33,25,17,18,10,3,65,54,43,29.53,29.53,0,0,0,0.00
2014-12-31,32,25,17,14,9,4,59,50,39,29.53,29.53,0,0,0,0.00
2015-1-1,37,30,24,25,19,12,72,64,55,29.53,29.53,0,0,0,0.01
2015-1-2,42,33,25,30,21,14,74,60,47,29.53,29.53,0,0,0,0.01